CCA4580 ZUCK-VHHX

Flight info

Callsign CCA4580
Flight time 1h 27m
Altitude 37100
Route UNRIX3Y UNRIX V50 UGUGU W182 LAGEX G586 SJG W2 PA W524 Y W523 QP B330 AVPAM A599 POU
Aircraft A346/H-SDE2E3FGHIJ3J4J5M1RWXY/LB1D1

Departure

Time 2026-05-06 23:07
Airport Chongqing Jiangbei International Airport (ZUCK)

Arrival

Time 2026-05-07 00:34
Airport Hong Kong International Airport Kai Tak (VHHX)
Time Latitude Longitude Altitude Speed Heading
2026-05-06 22:43 29.71220 106.65490 1379 ft 0 kts 284°
2026-05-06 22:57 29.71220 106.65491 1379 ft 0 kts 284°
2026-05-06 22:58 29.71216 106.65506 1379 ft 2 kts 284°
2026-05-06 22:58 29.71212 106.65523 1379 ft 2 kts 288°
2026-05-06 22:58 29.71206 106.65539 1379 ft 2 kts 304°
2026-05-06 22:58 29.71197 106.65552 1379 ft 2 kts 316°
2026-05-06 22:59 29.71185 106.65563 1379 ft 2 kts 327°
2026-05-06 22:59 29.71172 106.65572 1379 ft 2 kts 339°
2026-05-06 22:59 29.71157 106.65576 1379 ft 2 kts 351°
2026-05-06 22:59 29.71145 106.65578 1379 ft 0 kts
2026-05-06 23:00 29.71142 106.65578 1379 ft 0 kts
2026-05-06 23:02 29.71145 106.65578 1379 ft 1 kts
2026-05-06 23:02 29.71169 106.65583 1379 ft 5 kts 12°
2026-05-06 23:02 29.71215 106.65597 1379 ft 8 kts 18°
2026-05-06 23:02 29.71277 106.65628 1379 ft 11 kts 27°
2026-05-06 23:03 29.71349 106.65678 1379 ft 12 kts 29°
2026-05-06 23:03 29.71430 106.65730 1379 ft 12 kts 25°
2026-05-06 23:03 29.71510 106.65771 1379 ft 11 kts 48°
2026-05-06 23:03 29.71512 106.65871 1379 ft 14 kts 103°
2026-05-06 23:04 29.71497 106.65936 1379 ft 0 kts 107°
2026-05-06 23:04 29.71497 106.65939 1379 ft 1 kts 107°
2026-05-06 23:04 29.71490 106.65964 1379 ft 5 kts 107°
2026-05-06 23:05 29.71477 106.66016 1379 ft 8 kts 107°
2026-05-06 23:05 29.71458 106.66090 1379 ft 9 kts 107°
2026-05-06 23:05 29.71457 106.66151 1379 ft 6 kts 44°
2026-05-06 23:05 29.71513 106.66177 1379 ft 10 kts 17°
2026-05-06 23:06 29.71650 106.66222 1379 ft 50 kts 16°
2026-05-06 23:06 29.72229 106.66426 1379 ft 121 kts 17°
2026-05-06 23:06 29.73220 106.66767 1389 ft 174 kts 17°
2026-05-06 23:06 29.74447 106.67182 1742 ft 190 kts 17°
2026-05-06 23:07 29.75717 106.67615 2351 ft 194 kts 17°
2026-05-06 23:07 29.76996 106.68098 3062 ft 197 kts 23°
2026-05-06 23:07 29.78211 106.68850 3802 ft 199 kts 35°
2026-05-06 23:07 29.79326 106.69779 4481 ft 204 kts 35°
2026-05-06 23:08 29.80546 106.70717 4965 ft 220 kts 34°
2026-05-06 23:08 29.81877 106.71699 5417 ft 237 kts 32°
2026-05-06 23:08 29.83331 106.72746 5838 ft 259 kts 32°
2026-05-06 23:08 29.84870 106.73954 6368 ft 277 kts 45°
2026-05-06 23:09 29.85920 106.75809 7108 ft 282 kts 73°
2026-05-06 23:09 29.86135 106.77991 7826 ft 282 kts 99°
2026-05-06 23:09 29.85481 106.80097 8498 ft 284 kts 125°
2026-05-06 23:09 29.84071 106.81670 9160 ft 286 kts 152°
2026-05-06 23:10 29.82159 106.82349 9866 ft 287 kts 174°
2026-05-06 23:10 29.80180 106.82572 10543 ft 293 kts 175°
2026-05-06 23:10 29.78080 106.82789 10935 ft 310 kts 175°
2026-05-06 23:10 29.75864 106.83019 11291 ft 329 kts 175°
2026-05-06 23:11 29.73531 106.83266 11640 ft 348 kts 175°
2026-05-06 23:11 29.71052 106.83533 11982 ft 367 kts 175°
2026-05-06 23:11 29.68477 106.83813 12455 ft 381 kts 175°
2026-05-06 23:11 29.65811 106.84107 13266 ft 385 kts 175°
2026-05-06 23:12 29.63152 106.84401 14140 ft 388 kts 175°
2026-05-06 23:12 29.60481 106.84698 14952 ft 391 kts 175°
2026-05-06 23:12 29.57753 106.85001 15733 ft 395 kts 176°
2026-05-06 23:12 29.55165 106.85289 16454 ft 399 kts 176°
2026-05-06 23:13 29.52412 106.85596 17196 ft 403 kts 176°
2026-05-06 23:13 29.49581 106.85910 17928 ft 407 kts 176°
2026-05-06 23:13 29.46754 106.86224 18635 ft 411 kts 176°
2026-05-06 23:13 29.43917 106.86539 19318 ft 414 kts 176°
2026-05-06 23:14 29.41055 106.86856 19982 ft 418 kts 176°
2026-05-06 23:14 29.38175 106.87176 20629 ft 422 kts 176°
2026-05-06 23:14 29.35227 106.87503 21269 ft 426 kts 176°
2026-05-06 23:14 29.32297 106.87828 21881 ft 429 kts 176°
2026-05-06 23:15 29.29325 106.88161 22477 ft 433 kts 177°
2026-05-06 23:15 29.26318 106.88498 23065 ft 437 kts 177°
2026-05-06 23:15 29.23281 106.88837 23642 ft 440 kts 177°
2026-05-06 23:15 29.20236 106.89176 24195 ft 444 kts 177°
2026-05-06 23:16 29.17131 106.89520 24740 ft 448 kts 177°
2026-05-06 23:16 29.14038 106.89863 25268 ft 451 kts 177°
2026-05-06 23:16 29.10918 106.90208 25784 ft 455 kts 177°
2026-05-06 23:16 29.07756 106.90557 26271 ft 459 kts 177°
2026-05-06 23:17 29.04608 106.90904 26709 ft 464 kts 178°
2026-05-06 23:17 29.01359 106.91262 27142 ft 468 kts 178°
2026-05-06 23:17 28.98120 106.91619 27570 ft 473 kts 178°
2026-05-06 23:17 28.94837 106.91981 27983 ft 477 kts 178°
2026-05-06 23:18 28.91538 106.92343 28404 ft 481 kts 178°
2026-05-06 23:18 28.88190 106.92712 28889 ft 483 kts 178°
2026-05-06 23:18 28.84870 106.93079 29507 ft 482 kts 178°
2026-05-06 23:18 28.81568 106.93444 30135 ft 480 kts 178°
2026-05-06 23:19 28.78246 106.93810 30725 ft 479 kts 178°
2026-05-06 23:19 28.74961 106.94282 31281 ft 480 kts 173°
2026-05-06 23:19 28.71721 106.95122 31821 ft 483 kts 167°
2026-05-06 23:19 28.68521 106.96359 32348 ft 485 kts 161°
2026-05-06 23:20 28.65461 106.97965 32851 ft 488 kts 155°
2026-05-06 23:20 28.62562 106.99926 33333 ft 490 kts 149°
2026-05-06 23:20 28.59849 107.02228 33808 ft 492 kts 142°
2026-05-06 23:20 28.57285 107.04882 34284 ft 494 kts 139°
2026-05-06 23:21 28.54856 107.07572 34753 ft 493 kts 137°
2026-05-06 23:21 28.52404 107.10321 35237 ft 492 kts 137°
2026-05-06 23:21 28.49992 107.13016 35672 ft 491 kts 138°
2026-05-06 23:21 28.47533 107.15744 36032 ft 492 kts 138°
2026-05-06 23:22 28.45107 107.18421 36329 ft 493 kts 138°
2026-05-06 23:22 28.42625 107.21151 36614 ft 495 kts 138°
2026-05-06 23:22 28.40164 107.23854 36865 ft 497 kts 138°
2026-05-06 23:22 28.37692 107.26570 37046 ft 499 kts 138°
2026-05-06 23:23 28.35125 107.29264 37056 ft 499 kts 141°
2026-05-06 23:23 28.29759 107.34220 37060 ft 498 kts 144°
2026-05-06 23:24 28.24326 107.39075 37063 ft 498 kts 144°
2026-05-06 23:24 28.18908 107.43928 37071 ft 498 kts 144°
2026-05-06 23:25 28.13531 107.48883 37085 ft 499 kts 143°
2026-05-06 23:25 28.08151 107.53895 37101 ft 499 kts 143°
2026-05-06 23:26 28.02804 107.58852 37111 ft 499 kts 143°
2026-05-06 23:26 27.97443 107.63811 37115 ft 498 kts 143°
2026-05-06 23:27 27.92055 107.68778 37114 ft 498 kts 143°
2026-05-06 23:27 27.86623 107.73618 37114 ft 497 kts 147°
2026-05-06 23:28 27.80845 107.77823 37116 ft 495 kts 153°
2026-05-06 23:28 27.74733 107.81259 37115 ft 491 kts 160°
2026-05-06 23:29 27.68450 107.84286 37115 ft 491 kts 160°
2026-05-06 23:29 27.62150 107.87312 37115 ft 491 kts 160°
2026-05-06 23:30 27.55883 107.90332 37115 ft 492 kts 160°
2026-05-06 23:30 27.49604 107.93359 37115 ft 492 kts 160°
2026-05-06 23:31 27.43329 107.96381 37115 ft 492 kts 160°
2026-05-06 23:31 27.37053 107.99401 37115 ft 492 kts 160°
2026-05-06 23:32 27.30761 108.02425 37114 ft 492 kts 160°
2026-05-06 23:32 27.24482 108.05438 37116 ft 492 kts 160°
2026-05-06 23:33 27.18201 108.08450 37115 ft 492 kts 160°
2026-05-06 23:33 27.11944 108.11445 37115 ft 492 kts 160°
2026-05-06 23:34 27.05658 108.14451 37114 ft 492 kts 160°
2026-05-06 23:34 26.99331 108.17471 37114 ft 493 kts 160°
2026-05-06 23:35 26.93047 108.20464 37114 ft 495 kts 159°
2026-05-06 23:35 26.86681 108.23496 37114 ft 496 kts 159°
2026-05-06 23:36 26.80372 108.26502 37115 ft 497 kts 159°
2026-05-06 23:36 26.74027 108.29518 37115 ft 497 kts 159°
2026-05-06 23:37 26.67682 108.32626 37111 ft 498 kts 154°
2026-05-06 23:37 26.62058 108.37150 37116 ft 502 kts 136°
2026-05-06 23:38 26.57781 108.43240 37116 ft 504 kts 120°
2026-05-06 23:38 26.55135 108.50474 37117 ft 503 kts 104°
2026-05-06 23:39 26.53399 108.58055 37098 ft 503 kts 103°
2026-05-06 23:39 26.51692 108.65613 37056 ft 503 kts 104°
2026-05-06 23:40 26.49938 108.73169 37004 ft 504 kts 104°
2026-05-06 23:40 26.48160 108.80756 36958 ft 504 kts 104°
2026-05-06 23:41 26.46385 108.88300 36936 ft 504 kts 104°
2026-05-06 23:41 26.44264 108.95741 36928 ft 504 kts 113°
2026-05-06 23:42 26.40904 109.02581 36926 ft 504 kts 125°
2026-05-06 23:42 26.36392 109.08488 36925 ft 501 kts 137°
2026-05-06 23:43 26.31061 109.13471 36926 ft 500 kts 143°
2026-05-06 23:43 26.25633 109.18266 36925 ft 499 kts 142°
2026-05-06 23:44 26.20194 109.23103 36925 ft 499 kts 142°
2026-05-06 23:44 26.14783 109.27938 36925 ft 499 kts 142°
2026-05-06 23:45 26.09391 109.32758 36925 ft 499 kts 142°
2026-05-06 23:45 26.04003 109.37571 36925 ft 499 kts 142°
2026-05-06 23:46 25.98594 109.42394 36925 ft 499 kts 142°
2026-05-06 23:46 25.93181 109.47217 36964 ft 499 kts 142°
2026-05-06 23:47 25.87692 109.52100 37015 ft 508 kts 142°
2026-05-06 23:47 25.82166 109.57008 37022 ft 509 kts 142°
2026-05-06 23:48 25.76855 109.62154 37024 ft 510 kts 136°
2026-05-06 23:48 25.71991 109.67862 37024 ft 511 kts 133°
2026-05-06 23:49 25.67214 109.73704 37025 ft 511 kts 133°
2026-05-06 23:49 25.62448 109.79507 37025 ft 511 kts 133°
2026-05-06 23:50 25.57651 109.85320 37025 ft 511 kts 133°
2026-05-06 23:50 25.50457 109.94016 37025 ft 511 kts 133°
2026-05-06 23:51 25.45661 109.99799 37025 ft 511 kts 133°
2026-05-06 23:51 25.40873 110.05560 37024 ft 510 kts 134°
2026-05-06 23:52 25.35867 110.11177 37025 ft 510 kts 136°
2026-05-06 23:52 25.30869 110.16701 37025 ft 510 kts 136°
2026-05-06 23:53 25.25859 110.22238 37025 ft 510 kts 136°
2026-05-06 23:53 25.20864 110.27758 37025 ft 510 kts 136°
2026-05-06 23:54 25.15701 110.33188 37024 ft 510 kts 140°
2026-05-06 23:54 25.10238 110.38236 37025 ft 510 kts 141°
2026-05-06 23:55 25.04788 110.43205 37025 ft 509 kts 140°
2026-05-06 23:55 24.99358 110.48165 37025 ft 507 kts 140°
2026-05-06 23:56 24.93929 110.53127 37025 ft 504 kts 139°
2026-05-06 23:56 24.88556 110.58041 37024 ft 504 kts 139°
2026-05-06 23:57 24.83183 110.62947 37024 ft 504 kts 139°
2026-05-06 23:57 24.78326 110.68501 37026 ft 502 kts 127°
2026-05-06 23:58 24.74161 110.74654 37025 ft 502 kts 125°
2026-05-06 23:58 24.70024 110.80780 37025 ft 502 kts 126°
2026-05-06 23:59 24.65844 110.86901 37025 ft 502 kts 126°
2026-05-06 23:59 24.61629 110.93037 37025 ft 501 kts 126°
2026-05-07 00:00 24.57439 110.99113 37025 ft 500 kts 126°
2026-05-07 00:00 24.53927 111.04181 37025 ft 498 kts 126°
2026-05-07 00:01 24.49066 111.11188 37025 ft 496 kts 126°
2026-05-07 00:01 24.44886 111.17203 37025 ft 495 kts 126°
2026-05-07 00:02 24.40719 111.23206 37025 ft 495 kts 126°
2026-05-07 00:02 24.36547 111.29215 37025 ft 495 kts 126°
2026-05-07 00:03 24.32378 111.35208 37025 ft 495 kts 126°
2026-05-07 00:03 24.28196 111.41215 37025 ft 495 kts 126°
2026-05-07 00:04 24.24031 111.47190 37025 ft 495 kts 126°
2026-05-07 00:04 24.19843 111.53192 37024 ft 495 kts 126°
2026-05-07 00:05 24.15681 111.59150 37023 ft 495 kts 126°
2026-05-07 00:05 24.11487 111.65146 37027 ft 495 kts 126°
2026-05-07 00:06 24.07305 111.71117 37039 ft 495 kts 126°
2026-05-07 00:06 24.03111 111.77100 37055 ft 495 kts 126°
2026-05-07 00:07 23.98930 111.83056 37067 ft 495 kts 126°
2026-05-07 00:07 23.94737 111.89022 37074 ft 495 kts 126°
2026-05-07 00:08 23.90549 111.94974 37077 ft 495 kts 126°
2026-05-07 00:08 23.86324 112.00973 37077 ft 495 kts 126°
2026-05-07 00:09 23.82146 112.06896 37077 ft 495 kts 126°
2026-05-07 00:09 23.77940 112.12852 37077 ft 495 kts 126°
2026-05-07 00:10 23.73750 112.18776 37077 ft 495 kts 126°
2026-05-07 00:10 23.69577 112.24670 37074 ft 487 kts 126°
2026-05-07 00:11 23.65434 112.30518 37077 ft 485 kts 126°
2026-05-07 00:11 23.61331 112.36303 37077 ft 485 kts 126°
2026-05-07 00:12 23.57193 112.42128 36975 ft 486 kts 126°
2026-05-07 00:12 23.55145 112.45009 36728 ft 484 kts 126°
2026-05-07 00:12 23.53082 112.47909 36478 ft 481 kts 126°
2026-05-07 00:13 23.51053 112.50760 36231 ft 478 kts 126°
2026-05-07 00:13 23.49020 112.53615 35982 ft 476 kts 126°
2026-05-07 00:13 23.47007 112.56439 35734 ft 475 kts 126°
2026-05-07 00:13 23.44990 112.59270 35487 ft 475 kts 126°
2026-05-07 00:14 23.42939 112.62144 35235 ft 476 kts 126°
2026-05-07 00:14 23.40931 112.64959 34989 ft 476 kts 126°
2026-05-07 00:14 23.38900 112.67802 34740 ft 477 kts 127°
2026-05-07 00:14 23.36848 112.70672 34487 ft 478 kts 127°
2026-05-07 00:15 23.34830 112.73493 34162 ft 479 kts 127°
2026-05-07 00:15 23.32778 112.76361 33720 ft 480 kts 127°
2026-05-07 00:15 23.30747 112.79197 33165 ft 480 kts 127°
2026-05-07 00:15 23.28690 112.82068 32542 ft 481 kts 127°
2026-05-07 00:16 23.26648 112.84916 31905 ft 482 kts 127°
2026-05-07 00:16 23.24593 112.87781 31251 ft 483 kts 127°
2026-05-07 00:16 23.22533 112.90657 30577 ft 484 kts 127°
2026-05-07 00:16 23.20453 112.93557 29891 ft 484 kts 127°
2026-05-07 00:17 23.18408 112.96406 29227 ft 485 kts 127°
2026-05-07 00:17 23.16324 112.99306 28546 ft 485 kts 127°
2026-05-07 00:17 23.14251 113.02187 27924 ft 483 kts 127°
2026-05-07 00:17 23.12210 113.05022 27471 ft 479 kts 127°
2026-05-07 00:18 23.10160 113.07869 27009 ft 474 kts 127°
2026-05-07 00:18 23.08145 113.10667 26536 ft 470 kts 127°
2026-05-07 00:18 23.06141 113.13448 26039 ft 466 kts 127°
2026-05-07 00:18 23.04159 113.16169 25604 ft 461 kts 128°
2026-05-07 00:19 23.02074 113.18816 25185 ft 456 kts 131°
2026-05-07 00:19 22.99934 113.21278 24736 ft 453 kts 134°
2026-05-07 00:19 22.97655 113.23670 24203 ft 451 kts 135°
2026-05-07 00:19 22.95418 113.25969 23757 ft 448 kts 135°
2026-05-07 00:20 22.93160 113.28282 23318 ft 444 kts 136°
2026-05-07 00:20 22.90929 113.30564 22887 ft 440 kts 136°
2026-05-07 00:20 22.88700 113.32845 22452 ft 437 kts 136°
2026-05-07 00:20 22.86511 113.35086 22025 ft 433 kts 136°
2026-05-07 00:21 22.84330 113.37318 21601 ft 430 kts 136°
2026-05-07 00:21 22.82176 113.39521 21182 ft 427 kts 136°
2026-05-07 00:21 22.80032 113.41714 20762 ft 424 kts 136°
2026-05-07 00:21 22.77886 113.43906 20340 ft 421 kts 136°
2026-05-07 00:22 22.75775 113.46063 19923 ft 418 kts 136°
2026-05-07 00:22 22.73666 113.48216 19504 ft 415 kts 136°
2026-05-07 00:22 22.71572 113.50354 19087 ft 413 kts 136°
2026-05-07 00:22 22.69486 113.52483 18668 ft 410 kts 136°
2026-05-07 00:23 22.67430 113.54579 18255 ft 408 kts 136°
2026-05-07 00:23 22.65375 113.56674 17839 ft 405 kts 136°
2026-05-07 00:23 22.63345 113.58743 17427 ft 403 kts 136°
2026-05-07 00:23 22.61304 113.60822 17010 ft 401 kts 136°
2026-05-07 00:24 22.59282 113.62881 16547 ft 407 kts 136°
2026-05-07 00:24 22.57235 113.64964 15909 ft 397 kts 136°
2026-05-07 00:24 22.55278 113.66954 15330 ft 381 kts 136°
2026-05-07 00:24 22.53373 113.68891 14630 ft 369 kts 136°
2026-05-07 00:25 22.51525 113.70771 13928 ft 360 kts 136°
2026-05-07 00:25 22.49729 113.72597 13228 ft 351 kts 136°
2026-05-07 00:25 22.47966 113.74387 12523 ft 344 kts 137°
2026-05-07 00:25 22.46236 113.76144 11789 ft 339 kts 137°
2026-05-07 00:26 22.44538 113.77865 11040 ft 333 kts 136°
2026-05-07 00:26 22.42863 113.79562 10287 ft 327 kts 136°
2026-05-07 00:26 22.41234 113.81213 9622 ft 319 kts 136°
2026-05-07 00:26 22.39646 113.82814 9090 ft 308 kts 138°
2026-05-07 00:27 22.37902 113.84109 8555 ft 299 kts 149°
2026-05-07 00:27 22.36194 113.85304 7956 ft 294 kts 143°
2026-05-07 00:27 22.34534 113.86591 7210 ft 294 kts 143°
2026-05-07 00:27 22.32917 113.87875 6557 ft 290 kts 135°
2026-05-07 00:28 22.31770 113.89596 5911 ft 281 kts 109°
2026-05-07 00:28 22.31420 113.91627 5291 ft 273 kts 88°
2026-05-07 00:28 22.31540 113.93642 4728 ft 267 kts 82°
2026-05-07 00:28 22.31749 113.95606 4344 ft 255 kts 83°
2026-05-07 00:29 22.31908 113.97469 3999 ft 244 kts 84°
2026-05-07 00:29 22.32027 113.99248 3671 ft 234 kts 85°
2026-05-07 00:30 22.32320 114.04106 2800 ft 197 kts 85°
2026-05-07 00:30 22.32409 114.05529 2522 ft 184 kts 84°
2026-05-07 00:30 22.32445 114.06103 2414 ft 179 kts 84°
2026-05-07 00:30 22.32509 114.07156 2218 ft 168 kts 85°
2026-05-07 00:31 22.32581 114.08369 1997 ft 159 kts 85°
2026-05-07 00:31 22.32657 114.09560 1794 ft 158 kts 85°
2026-05-07 00:31 22.32734 114.10744 1587 ft 157 kts 85°
2026-05-07 00:31 22.32810 114.11923 1375 ft 157 kts 85°
2026-05-07 00:32 22.32885 114.13091 1157 ft 156 kts 85°
2026-05-07 00:32 22.32960 114.14263 937 ft 156 kts 86°
2026-05-07 00:32 22.33035 114.15430 720 ft 155 kts 86°
2026-05-07 00:32 22.33110 114.16592 523 ft 155 kts 86°
2026-05-07 00:33 22.33169 114.17752 360 ft 153 kts 91°
2026-05-07 00:33 22.32917 114.18845 225 ft 151 kts 124°
2026-05-07 00:33 22.32165 114.19634 90 ft 149 kts 131°
2026-05-07 00:33 22.31512 114.20383 37 ft 119 kts 130°
2026-05-07 00:34 22.31164 114.20776 37 ft 26 kts 134°
2026-05-07 00:34 22.31029 114.20925 37 ft 27 kts 134°
2026-05-07 00:34 22.30950 114.21046 37 ft 11 kts 72°
2026-05-07 00:34 22.30998 114.21084 37 ft 8 kts 344°
2026-05-07 00:35 22.31057 114.21040 37 ft 11 kts 320°
2026-05-07 00:35 22.31123 114.20972 37 ft 14 kts 315°
2026-05-07 00:35 22.31195 114.20888 37 ft 16 kts 312°
2026-05-07 00:35 22.31277 114.20792 37 ft 18 kts 314°
2026-05-07 00:36 22.31369 114.20690 37 ft 19 kts 314°
2026-05-07 00:36 22.31467 114.20581 37 ft 21 kts 314°
2026-05-07 00:36 22.31574 114.20461 37 ft 22 kts 314°
2026-05-07 00:36 22.31688 114.20334 37 ft 24 kts 314°
2026-05-07 00:37 22.31810 114.20197 37 ft 26 kts 314°
2026-05-07 00:37 22.31939 114.20052 37 ft 26 kts 314°
2026-05-07 00:37 22.32067 114.19911 37 ft 24 kts 315°
2026-05-07 00:37 22.32178 114.19793 37 ft 20 kts 315°
2026-05-07 00:38 22.32281 114.19682 37 ft 20 kts 315°
2026-05-07 00:38 22.32358 114.19599 37 ft 12 kts 316°
2026-05-07 00:38 22.32413 114.19557 37 ft 8 kts
2026-05-07 00:38 22.32474 114.19594 37 ft 11 kts 41°
2026-05-07 00:39 22.32523 114.19637 37 ft 7 kts 13°
2026-05-07 00:39 22.32570 114.19614 37 ft 8 kts 323°
2026-05-07 00:39 22.32596 114.19588 37 ft 2 kts 316°
2026-05-07 00:39 22.32600 114.19585 37 ft 0 kts 316°